2021,02,24,00,00,00,179.8,,,,,,,,,,,,,,
2021,02,24,00,01,00,179.8,,,,,,,,,,,,,,
2021,02,24,00,02,00,145.2,,,,,,,,,,,,,,
2021,02,24,00,03,00,168.0,,,,,,,,,,,,,,
2021,02,24,00,04,00,178.4,,,,,,,,,,,,,,
2021,02,24,00,05,00,166.7,,,,,,,,,,,,,,
2021,02,24,00,06,00,148.0,,,,,,,,,,,,,,
2021,02,24,00,07,00,149.7,,,,,,,,,,,,,,
2021,02,24,00,08,00,150.5,,,,,,,,,,,,,,
2021,02,24,00,09,00,151.4,,,,,,,,,,,,,,
2021,02,24,00,10,00,144.5,,,,,,,,,,,,,,
2021,02,24,00,11,00,143.9,,,,,,,,,,,,,,
2021,02,24,00,12,00,159.9,,,,,,,,,,,,,,
2021,02,24,00,13,00,182.7,,,,,,,,,,,,,,
2021,02,24,00,14,00,176.6,,,,,,,,,,,,,,
2021,02,24,00,15,00,198.1,,,,,,,,,,,,,,
2021,02,24,00,16,00,205.0,,,,,,,,,,,,,,
2021,02,24,00,17,00,198.1,,,,,,,,,,,,,,
2021,02,24,00,18,00,166.1,,,,,,,,,,,,,,
2021,02,24,00,19,00,155.6,,,,,,,,,,,,,,
2021,02,24,00,20,00,156.5,,,,,,,,,,,,,,
2021,02,24,00,21,00,152.1,,,,,,,,,,,,,,
2021,02,24,00,22,00,168.5,,,,,,,,,,,,,,
2021,02,24,00,23,00,192.9,,,,,,,,,,,,,,
2021,02,24,00,24,00,194.9,,,,,,,,,,,,,,
2021,02,24,00,25,00,186.0,,,,,,,,,,,,,,
2021,02,24,00,26,00,173.2,,,,,,,,,,,,,,
2021,02,24,00,27,00,179.3,,,,,,,,,,,,,,
2021,02,24,00,28,00,164.9,,,,,,,,,,,,,,
2021,02,24,00,29,00,146.4,,,,,,,,,,,,,,
2021,02,24,00,30,00,185.3,,,,,,,,,,,,,,
2021,02,24,00,31,00,198.7,,,,,,,,,,,,,,
2021,02,24,00,32,00,201.0,,,,,,,,,,,,,,
2021,02,24,00,33,00,203.5,,,,,,,,,,,,,,
2021,02,24,00,34,00,177.0,,,,,,,,,,,,,,
2021,02,24,00,35,00,160.8,,,,,,,,,,,,,,
2021,02,24,00,36,00,169.8,,,,,,,,,,,,,,
2021,02,24,00,37,00,207.6,,,,,,,,,,,,,,
2021,02,24,00,38,00,248.2,,,,,,,,,,,,,,
2021,02,24,00,39,00,214.6,,,,,,,,,,,,,,
2021,02,24,00,40,00,193.4,,,,,,,,,,,,,,
2021,02,24,00,41,00,202.5,,,,,,,,,,,,,,
2021,02,24,00,42,00,172.0,,,,,,,,,,,,,,
2021,02,24,00,43,00,151.9,,,,,,,,,,,,,,
2021,02,24,00,44,00,170.8,,,,,,,,,,,,,,
2021,02,24,00,45,00,166.4,,,,,,,,,,,,,,
2021,02,24,00,46,00,177.5,,,,,,,,,,,,,,
2021,02,24,00,47,00,178.5,,,,,,,,,,,,,,
2021,02,24,00,48,00,177.7,,,,,,,,,,,,,,
2021,02,24,00,49,00,174.0,,,,,,,,,,,,,,
2021,02,24,00,50,00,192.4,,,,,,,,,,,,,,
2021,02,24,00,51,00,182.7,,,,,,,,,,,,,,
2021,02,24,00,52,00,171.7,,,,,,,,,,,,,,
2021,02,24,00,53,00,157.1,,,,,,,,,,,,,,
2021,02,24,00,54,00,157.1,,,,,,,,,,,,,,
2021,02,24,00,55,00,174.9,,,,,,,,,,,,,,
2021,02,24,00,56,00,162.8,,,,,,,,,,,,,,
2021,02,24,00,57,00,152.3,,,,,,,,,,,,,,
2021,02,24,00,58,00,152.3,,,,,,,,,,,,,,
2021,02,24,00,59,00,158.8,,,,,,,,,,,,,,
2021,02,24,01,00,00,151.1,,,,,,,,,,,,,,
2021,02,24,01,01,00,160.2,,,,,,,,,,,,,,
2021,02,24,01,02,00,175.7,,,,,,,,,,,,,,
2021,02,24,01,03,00,192.9,,,,,,,,,,,,,,
2021,02,24,01,04,00,174.6,,,,,,,,,,,,,,
2021,02,24,01,05,00,165.3,,,,,,,,,,,,,,
2021,02,24,01,06,00,153.5,,,,,,,,,,,,,,
2021,02,24,01,07,00,150.9,,,,,,,,,,,,,,
2021,02,24,01,08,00,158.9,,,,,,,,,,,,,,
2021,02,24,01,09,00,171.5,,,,,,,,,,,,,,
2021,02,24,01,10,00,177.0,,,,,,,,,,,,,,
2021,02,24,01,11,00,172.6,,,,,,,,,,,,,,
2021,02,24,01,12,00,190.3,,,,,,,,,,,,,,
2021,02,24,01,13,00,201.0,,,,,,,,,,,,,,
2021,02,24,01,14,00,255.6,,,,,,,,,,,,,,
2021,02,24,01,15,00,331.0,,,,,,,,,,,,,,
2021,02,24,01,16,00,239.8,,,,,,,,,,,,,,
2021,02,24,01,17,00,210.2,,,,,,,,,,,,,,
2021,02,24,01,18,00,202.8,,,,,,,,,,,,,,
2021,02,24,01,19,00,204.9,,,,,,,,,,,,,,
2021,02,24,01,20,00,181.5,,,,,,,,,,,,,,
2021,02,24,01,21,00,177.3,,,,,,,,,,,,,,
2021,02,24,01,22,00,190.3,,,,,,,,,,,,,,
2021,02,24,01,23,00,168.5,,,,,,,,,,,,,,
2021,02,24,01,24,00,186.2,,,,,,,,,,,,,,
2021,02,24,01,25,00,218.4,,,,,,,,,,,,,,
2021,02,24,01,26,00,195.9,,,,,,,,,,,,,,
2021,02,24,01,27,00,167.3,,,,,,,,,,,,,,
2021,02,24,01,28,00,151.9,,,,,,,,,,,,,,
2021,02,24,01,29,00,162.7,,,,,,,,,,,,,,
2021,02,24,01,30,00,188.6,,,,,,,,,,,,,,
2021,02,24,01,31,00,195.5,,,,,,,,,,,,,,
2021,02,24,01,32,00,156.4,,,,,,,,,,,,,,
2021,02,24,01,33,00,165.7,,,,,,,,,,,,,,
2021,02,24,01,34,00,201.8,,,,,,,,,,,,,,
2021,02,24,01,35,00,173.9,,,,,,,,,,,,,,
2021,02,24,01,36,00,146.2,,,,,,,,,,,,,,
2021,02,24,01,37,00,148.7,,,,,,,,,,,,,,
2021,02,24,01,38,00,146.8,,,,,,,,,,,,,,
2021,02,24,01,39,00,151.4,,,,,,,,,,,,,,
2021,02,24,01,40,00,166.3,,,,,,,,,,,,,,
2021,02,24,01,41,00,161.1,,,,,,,,,,,,,,
2021,02,24,01,42,00,162.9,,,,,,,,,,,,,,
2021,02,24,01,43,00,159.2,,,,,,,,,,,,,,
2021,02,24,01,44,00,137.1,,,,,,,,,,,,,,
2021,02,24,01,45,00,141.0,,,,,,,,,,,,,,
2021,02,24,01,46,00,146.2,,,,,,,,,,,,,,
2021,02,24,01,47,00,139.8,,,,,,,,,,,,,,
2021,02,24,01,48,00,163.0,,,,,,,,,,,,,,
2021,02,24,01,49,00,182.0,,,,,,,,,,,,,,
2021,02,24,01,50,00,186.1,,,,,,,,,,,,,,
2021,02,24,01,51,00,194.7,,,,,,,,,,,,,,
2021,02,24,01,52,00,157.8,,,,,,,,,,,,,,
2021,02,24,01,53,00,195.8,,,,,,,,,,,,,,
2021,02,24,01,54,00,186.6,,,,,,,,,,,,,,
2021,02,24,01,55,00,171.6,,,,,,,,,,,,,,
2021,02,24,01,56,00,146.8,,,,,,,,,,,,,,
2021,02,24,01,57,00,189.0,,,,,,,,,,,,,,
2021,02,24,01,58,00,155.3,,,,,,,,,,,,,,
2021,02,24,01,59,00,151.8,,,,,,,,,,,,,,
2021,02,24,02,00,00,120.4,,,,,,,,,,,,,,
2021,02,24,02,01,00,121.7,,,,,,,,,,,,,,
2021,02,24,02,02,00,129.5,,,,,,,,,,,,,,
2021,02,24,02,03,00,135.0,,,,,,,,,,,,,,
2021,02,24,02,04,00,137.7,,,,,,,,,,,,,,
2021,02,24,02,05,00,150.9,,,,,,,,,,,,,,
2021,02,24,02,06,00,160.6,,,,,,,,,,,,,,
2021,02,24,02,07,00,165.8,,,,,,,,,,,,,,
2021,02,24,02,08,00,139.2,,,,,,,,,,,,,,
2021,02,24,02,09,00,132.7,,,,,,,,,,,,,,
2021,02,24,02,10,00,138.3,,,,,,,,,,,,,,
2021,02,24,02,11,00,128.8,,,,,,,,,,,,,,
2021,02,24,02,12,00,146.2,,,,,,,,,,,,,,
2021,02,24,02,13,00,140.6,,,,,,,,,,,,,,
2021,02,24,02,14,00,146.1,,,,,,,,,,,,,,
2021,02,24,02,15,00,179.7,,,,,,,,,,,,,,
2021,02,24,02,16,00,163.5,,,,,,,,,,,,,,
2021,02,24,02,17,00,145.7,,,,,,,,,,,,,,
2021,02,24,02,18,00,158.2,,,,,,,,,,,,,,
2021,02,24,02,19,00,173.5,,,,,,,,,,,,,,
2021,02,24,02,20,00,147.5,,,,,,,,,,,,,,
2021,02,24,02,21,00,142.0,,,,,,,,,,,,,,
2021,02,24,02,22,00,141.5,,,,,,,,,,,,,,
2021,02,24,02,23,00,169.6,,,,,,,,,,,,,,
2021,02,24,02,24,00,148.4,,,,,,,,,,,,,,
2021,02,24,02,25,00,140.4,,,,,,,,,,,,,,
2021,02,24,02,26,00,137.8,,,,,,,,,,,,,,
2021,02,24,02,27,00,145.1,,,,,,,,,,,,,,
2021,02,24,02,28,00,133.1,,,,,,,,,,,,,,
2021,02,24,02,29,00,127.4,,,,,,,,,,,,,,
2021,02,24,02,30,00,137.2,,,,,,,,,,,,,,
2021,02,24,02,31,00,176.9,,,,,,,,,,,,,,
2021,02,24,02,32,00,158.9,,,,,,,,,,,,,,
2021,02,24,02,33,00,143.4,,,,,,,,,,,,,,
2021,02,24,02,34,00,146.0,,,,,,,,,,,,,,
2021,02,24,02,35,00,146.3,,,,,,,,,,,,,,
2021,02,24,02,36,00,160.3,,,,,,,,,,,,,,
2021,02,24,02,37,00,159.2,,,,,,,,,,,,,,
2021,02,24,02,38,00,160.2,,,,,,,,,,,,,,
2021,02,24,02,39,00,175.5,,,,,,,,,,,,,,
2021,02,24,02,40,00,180.9,,,,,,,,,,,,,,
2021,02,24,02,41,00,186.4,,,,,,,,,,,,,,
2021,02,24,02,42,00,220.2,,,,,,,,,,,,,,
2021,02,24,02,43,00,232.0,,,,,,,,,,,,,,
2021,02,24,02,44,00,178.7,,,,,,,,,,,,,,
2021,02,24,02,45,00,181.9,,,,,,,,,,,,,,
2021,02,24,02,46,00,183.8,,,,,,,,,,,,,,
2021,02,24,02,47,00,180.4,,,,,,,,,,,,,,
2021,02,24,02,48,00,196.7,,,,,,,,,,,,,,
2021,02,24,02,49,00,204.2,,,,,,,,,,,,,,
2021,02,24,02,50,00,203.3,,,,,,,,,,,,,,
2021,02,24,02,51,00,193.1,,,,,,,,,,,,,,
2021,02,24,02,52,00,147.0,,,,,,,,,,,,,,
2021,02,24,02,53,00,147.9,,,,,,,,,,,,,,
2021,02,24,02,54,00,171.6,,,,,,,,,,,,,,
2021,02,24,02,55,00,145.2,,,,,,,,,,,,,,
2021,02,24,02,56,00,188.5,,,,,,,,,,,,,,
2021,02,24,02,57,00,194.4,,,,,,,,,,,,,,
2021,02,24,02,58,00,176.4,,,,,,,,,,,,,,
2021,02,24,02,59,00,214.1,,,,,,,,,,,,,,
2021,02,24,03,00,00,217.2,,,,,,,,,,,,,,
2021,02,24,03,01,00,205.5,,,,,,,,,,,,,,
2021,02,24,03,02,00,160.3,,,,,,,,,,,,,,
2021,02,24,03,03,00,133.4,,,,,,,,,,,,,,
2021,02,24,03,04,00,126.6,,,,,,,,,,,,,,
2021,02,24,03,05,00,122.6,,,,,,,,,,,,,,
2021,02,24,03,06,00,146.6,,,,,,,,,,,,,,
2021,02,24,03,07,00,142.4,,,,,,,,,,,,,,
2021,02,24,03,08,00,141.0,,,,,,,,,,,,,,
2021,02,24,03,09,00,135.3,,,,,,,,,,,,,,
2021,02,24,03,10,00,141.7,,,,,,,,,,,,,,
2021,02,24,03,11,00,166.0,,,,,,,,,,,,,,
2021,02,24,03,12,00,211.0,,,,,,,,,,,,,,
2021,02,24,03,13,00,187.2,,,,,,,,,,,,,,
2021,02,24,03,14,00,162.7,,,,,,,,,,,,,,
2021,02,24,03,15,00,150.9,,,,,,,,,,,,,,
2021,02,24,03,16,00,144.0,,,,,,,,,,,,,,
2021,02,24,03,17,00,184.9,,,,,,,,,,,,,,
2021,02,24,03,18,00,162.4,,,,,,,,,,,,,,
2021,02,24,03,19,00,133.9,,,,,,,,,,,,,,
2021,02,24,03,20,00,142.5,,,,,,,,,,,,,,
2021,02,24,03,21,00,171.5,,,,,,,,,,,,,,
2021,02,24,03,22,00,197.5,,,,,,,,,,,,,,
2021,02,24,03,23,00,191.6,,,,,,,,,,,,,,
2021,02,24,03,24,00,156.9,,,,,,,,,,,,,,
2021,02,24,03,25,00,133.5,,,,,,,,,,,,,,
2021,02,24,03,26,00,141.8,,,,,,,,,,,,,,
2021,02,24,03,27,00,139.3,,,,,,,,,,,,,,
2021,02,24,03,28,00,142.9,,,,,,,,,,,,,,
2021,02,24,03,29,00,139.0,,,,,,,,,,,,,,
2021,02,24,03,30,00,147.1,,,,,,,,,,,,,,
2021,02,24,03,31,00,124.3,,,,,,,,,,,,,,
2021,02,24,03,32,00,124.4,,,,,,,,,,,,,,
2021,02,24,03,33,00,127.2,,,,,,,,,,,,,,
2021,02,24,03,34,00,126.9,,,,,,,,,,,,,,
2021,02,24,03,35,00,114.5,,,,,,,,,,,,,,
2021,02,24,03,36,00,115.1,,,,,,,,,,,,,,
2021,02,24,03,37,00,113.1,,,,,,,,,,,,,,
2021,02,24,03,38,00,127.3,,,,,,,,,,,,,,
2021,02,24,03,39,00,144.5,,,,,,,,,,,,,,
2021,02,24,03,40,00,166.2,,,,,,,,,,,,,,
2021,02,24,03,41,00,194.3,,,,,,,,,,,,,,
2021,02,24,03,42,00,149.7,,,,,,,,,,,,,,
2021,02,24,03,43,00,127.2,,,,,,,,,,,,,,
2021,02,24,03,44,00,125.5,,,,,,,,,,,,,,
2021,02,24,03,45,00,124.8,,,,,,,,,,,,,,
2021,02,24,03,46,00,125.7,,,,,,,,,,,,,,
2021,02,24,03,47,00,125.1,,,,,,,,,,,,,,
2021,02,24,03,48,00,129.2,,,,,,,,,,,,,,
2021,02,24,03,49,00,131.4,,,,,,,,,,,,,,
2021,02,24,03,50,00,145.7,,,,,,,,,,,,,,
2021,02,24,03,51,00,171.4,,,,,,,,,,,,,,
2021,02,24,03,52,00,154.4,,,,,,,,,,,,,,
2021,02,24,03,53,00,144.2,,,,,,,,,,,,,,
2021,02,24,03,54,00,163.3,,,,,,,,,,,,,,
2021,02,24,03,55,00,174.4,,,,,,,,,,,,,,
2021,02,24,03,56,00,143.5,,,,,,,,,,,,,,
2021,02,24,03,57,00,144.4,,,,,,,,,,,,,,
2021,02,24,03,58,00,138.5,,,,,,,,,,,,,,
2021,02,24,03,59,00,144.6,,,,,,,,,,,,,,
2021,02,24,04,00,00,182.6,,,,,,,,,,,,,,
2021,02,24,04,01,00,198.2,,,,,,,,,,,,,,
2021,02,24,04,02,00,308.7,,,,,,,,,,,,,,
2021,02,24,04,03,00,375.3,,,,,,,,,,,,,,
2021,02,24,04,04,00,247.5,,,,,,,,,,,,,,
2021,02,24,04,05,00,215.7,,,,,,,,,,,,,,
2021,02,24,04,06,00,138.2,,,,,,,,,,,,,,
2021,02,24,04,07,00,119.0,,,,,,,,,,,,,,
2021,02,24,04,08,00,135.9,,,,,,,,,,,,,,
2021,02,24,04,09,00,120.2,,,,,,,,,,,,,,
2021,02,24,04,10,00,111.4,,,,,,,,,,,,,,
2021,02,24,04,11,00,111.3,,,,,,,,,,,,,,
2021,02,24,04,12,00,115.2,,,,,,,,,,,,,,
2021,02,24,04,13,00,125.5,,,,,,,,,,,,,,
2021,02,24,04,14,00,121.4,,,,,,,,,,,,,,
2021,02,24,04,15,00,133.6,,,,,,,,,,,,,,
2021,02,24,04,16,00,147.8,,,,,,,,,,,,,,
2021,02,24,04,17,00,144.4,,,,,,,,,,,,,,
2021,02,24,04,18,00,146.8,,,,,,,,,,,,,,
2021,02,24,04,19,00,,,,,,,,,,,,,,,
2021,02,24,04,20,00,,,,,,,,,,,,,,,
2021,02,24,04,21,00,179.5,,,,,,,,,,,,,,
2021,02,24,04,22,00,202.3,,,,,,,,,,,,,,
2021,02,24,04,23,00,197.8,,,,,,,,,,,,,,
2021,02,24,04,24,00,161.4,,,,,,,,,,,,,,
2021,02,24,04,25,00,133.1,,,,,,,,,,,,,,
2021,02,24,04,26,00,129.8,,,,,,,,,,,,,,
2021,02,24,04,27,00,123.0,,,,,,,,,,,,,,
2021,02,24,04,28,00,121.3,,,,,,,,,,,,,,
2021,02,24,04,29,00,111.1,,,,,,,,,,,,,,
2021,02,24,04,30,00,110.8,,,,,,,,,,,,,,
2021,02,24,04,31,00,118.2,,,,,,,,,,,,,,
2021,02,24,04,32,00,119.8,,,,,,,,,,,,,,
2021,02,24,04,33,00,134.4,,,,,,,,,,,,,,
2021,02,24,04,34,00,139.8,,,,,,,,,,,,,,
2021,02,24,04,35,00,143.8,,,,,,,,,,,,,,
2021,02,24,04,36,00,158.4,,,,,,,,,,,,,,
2021,02,24,04,37,00,156.4,,,,,,,,,,,,,,
2021,02,24,04,38,00,155.8,,,,,,,,,,,,,,
2021,02,24,04,39,00,138.2,,,,,,,,,,,,,,
2021,02,24,04,40,00,147.6,,,,,,,,,,,,,,
2021,02,24,04,41,00,148.8,,,,,,,,,,,,,,
2021,02,24,04,42,00,129.7,,,,,,,,,,,,,,
2021,02,24,04,43,00,142.1,,,,,,,,,,,,,,
2021,02,24,04,44,00,152.9,,,,,,,,,,,,,,
2021,02,24,04,45,00,178.4,,,,,,,,,,,,,,
2021,02,24,04,46,00,158.5,,,,,,,,,,,,,,
2021,02,24,04,47,00,161.5,,,,,,,,,,,,,,
2021,02,24,04,48,00,183.1,,,,,,,,,,,,,,
2021,02,24,04,49,00,194.4,,,,,,,,,,,,,,
2021,02,24,04,50,00,171.8,,,,,,,,,,,,,,
2021,02,24,04,51,00,126.9,,,,,,,,,,,,,,
2021,02,24,04,52,00,126.7,,,,,,,,,,,,,,
2021,02,24,04,53,00,123.1,,,,,,,,,,,,,,
2021,02,24,04,54,00,135.5,,,,,,,,,,,,,,
2021,02,24,04,55,00,144.6,,,,,,,,,,,,,,
2021,02,24,04,56,00,142.9,,,,,,,,,,,,,,
2021,02,24,04,57,00,133.3,,,,,,,,,,,,,,
2021,02,24,04,58,00,140.0,,,,,,,,,,,,,,
2021,02,24,04,59,00,145.7,,,,,,,,,,,,,,
2021,02,24,05,00,00,147.8,,,,,,,,,,,,,,
2021,02,24,05,01,00,136.6,,,,,,,,,,,,,,
2021,02,24,05,02,00,127.8,,,,,,,,,,,,,,
2021,02,24,05,03,00,119.6,,,,,,,,,,,,,,
2021,02,24,05,04,00,115.9,,,,,,,,,,,,,,
2021,02,24,05,05,00,122.4,,,,,,,,,,,,,,
2021,02,24,05,06,00,127.5,,,,,,,,,,,,,,
2021,02,24,05,07,00,132.2,,,,,,,,,,,,,,
2021,02,24,05,08,00,140.6,,,,,,,,,,,,,,
2021,02,24,05,09,00,127.9,,,,,,,,,,,,,,
2021,02,24,05,10,00,121.7,,,,,,,,,,,,,,
2021,02,24,05,11,00,121.1,,,,,,,,,,,,,,
2021,02,24,05,12,00,116.3,,,,,,,,,,,,,,
2021,02,24,05,13,00,116.5,,,,,,,,,,,,,,
2021,02,24,05,14,00,118.9,,,,,,,,,,,,,,
2021,02,24,05,15,00,123.0,,,,,,,,,,,,,,
2021,02,24,05,16,00,115.4,,,,,,,,,,,,,,
2021,02,24,05,17,00,114.5,,,,,,,,,,,,,,
2021,02,24,05,18,00,113.4,,,,,,,,,,,,,,
2021,02,24,05,19,00,118.3,,,,,,,,,,,,,,
2021,02,24,05,20,00,124.9,,,,,,,,,,,,,,
2021,02,24,05,21,00,122.4,,,,,,,,,,,,,,
2021,02,24,05,22,00,104.7,,,,,,,,,,,,,,
2021,02,24,05,23,00,107.3,,,,,,,,,,,,,,
2021,02,24,05,24,00,103.7,,,,,,,,,,,,,,
2021,02,24,05,25,00,119.3,,,,,,,,,,,,,,
2021,02,24,05,26,00,132.4,,,,,,,,,,,,,,
2021,02,24,05,27,00,119.9,,,,,,,,,,,,,,
2021,02,24,05,28,00,116.7,,,,,,,,,,,,,,
2021,02,24,05,29,00,119.2,,,,,,,,,,,,,,
2021,02,24,05,30,00,115.2,,,,,,,,,,,,,,
2021,02,24,05,31,00,115.0,,,,,,,,,,,,,,
2021,02,24,05,32,00,134.8,,,,,,,,,,,,,,
2021,02,24,05,33,00,137.6,,,,,,,,,,,,,,
2021,02,24,05,34,00,134.3,,,,,,,,,,,,,,
2021,02,24,05,35,00,129.1,,,,,,,,,,,,,,
2021,02,24,05,36,00,141.0,,,,,,,,,,,,,,
2021,02,24,05,37,00,134.8,,,,,,,,,,,,,,
2021,02,24,05,38,00,133.2,,,,,,,,,,,,,,
2021,02,24,05,39,00,123.2,,,,,,,,,,,,,,
2021,02,24,05,40,00,129.7,,,,,,,,,,,,,,
2021,02,24,05,41,00,122.7,,,,,,,,,,,,,,
2021,02,24,05,42,00,122.4,,,,,,,,,,,,,,
2021,02,24,05,43,00,123.8,,,,,,,,,,,,,,
2021,02,24,05,44,00,123.6,,,,,,,,,,,,,,
2021,02,24,05,45,00,124.3,,,,,,,,,,,,,,
2021,02,24,05,46,00,133.2,,,,,,,,,,,,,,
2021,02,24,05,47,00,147.9,,,,,,,,,,,,,,
2021,02,24,05,48,00,153.3,,,,,,,,,,,,,,
2021,02,24,05,49,00,146.4,,,,,,,,,,,,,,
2021,02,24,05,50,00,147.6,,,,,,,,,,,,,,
2021,02,24,05,51,00,139.6,,,,,,,,,,,,,,
2021,02,24,05,52,00,150.4,,,,,,,,,,,,,,
2021,02,24,05,53,00,157.3,,,,,,,,,,,,,,
2021,02,24,05,54,00,150.4,,,,,,,,,,,,,,
2021,02,24,05,55,00,133.7,,,,,,,,,,,,,,
2021,02,24,05,56,00,114.5,,,,,,,,,,,,,,
2021,02,24,05,57,00,113.0,,,,,,,,,,,,,,
2021,02,24,05,58,00,113.0,,,,,,,,,,,,,,
2021,02,24,05,59,00,115.2,,,,,,,,,,,,,,
2021,02,24,06,00,00,113.2,,,,,,,,,,,,,,
2021,02,24,06,01,00,114.9,,,,,,,,,,,,,,
2021,02,24,06,02,00,115.2,,,,,,,,,,,,,,
2021,02,24,06,03,00,117.7,,,,,,,,,,,,,,
2021,02,24,06,04,00,119.3,,,,,,,,,,,,,,
2021,02,24,06,05,00,115.9,,,,,,,,,,,,,,
2021,02,24,06,06,00,116.9,,,,,,,,,,,,,,
2021,02,24,06,07,00,117.5,,,,,,,,,,,,,,
2021,02,24,06,08,00,120.1,,,,,,,,,,,,,,
2021,02,24,06,09,00,126.2,,,,,,,,,,,,,,
2021,02,24,06,10,00,155.1,,,,,,,,,,,,,,
2021,02,24,06,11,00,175.6,,,,,,,,,,,,,,
2021,02,24,06,12,00,174.3,,,,,,,,,,,,,,
2021,02,24,06,13,00,144.5,,,,,,,,,,,,,,
2021,02,24,06,14,00,136.4,,,,,,,,,,,,,,
2021,02,24,06,15,00,123.9,,,,,,,,,,,,,,
2021,02,24,06,16,00,120.7,,,,,,,,,,,,,,
2021,02,24,06,17,00,127.7,,,,,,,,,,,,,,
2021,02,24,06,18,00,131.7,,,,,,,,,,,,,,
2021,02,24,06,19,00,,,,,,,,,,,,,,,
2021,02,24,06,20,00,,,,,,,,,,,,,,,
2021,02,24,06,21,00,128.9,,,,,,,,,,,,,,
2021,02,24,06,22,00,119.4,,,,,,,,,,,,,,
2021,02,24,06,23,00,119.2,,,,,,,,,,,,,,
2021,02,24,06,24,00,123.1,,,,,,,,,,,,,,
2021,02,24,06,25,00,113.6,,,,,,,,,,,,,,
2021,02,24,06,26,00,113.5,,,,,,,,,,,,,,
2021,02,24,06,27,00,116.2,,,,,,,,,,,,,,
2021,02,24,06,28,00,125.2,,,,,,,,,,,,,,
2021,02,24,06,29,00,134.2,,,,,,,,,,,,,,
2021,02,24,06,30,00,142.8,,,,,,,,,,,,,,
2021,02,24,06,31,00,137.7,,,,,,,,,,,,,,
2021,02,24,06,32,00,138.1,,,,,,,,,,,,,,
2021,02,24,06,33,00,134.6,,,,,,,,,,,,,,
2021,02,24,06,34,00,133.0,,,,,,,,,,,,,,
2021,02,24,06,35,00,132.9,,,,,,,,,,,,,,
2021,02,24,06,36,00,133.0,,,,,,,,,,,,,,
2021,02,24,06,37,00,146.3,,,,,,,,,,,,,,
2021,02,24,06,38,00,175.2,,,,,,,,,,,,,,
2021,02,24,06,39,00,216.4,,,,,,,,,,,,,,
2021,02,24,06,40,00,185.6,,,,,,,,,,,,,,
2021,02,24,06,41,00,150.6,,,,,,,,,,,,,,
2021,02,24,06,42,00,143.2,,,,,,,,,,,,,,
2021,02,24,06,43,00,151.5,,,,,,,,,,,,,,
2021,02,24,06,44,00,173.5,,,,,,,,,,,,,,
2021,02,24,06,45,00,181.3,,,,,,,,,,,,,,
2021,02,24,06,46,00,224.1,,,,,,,,,,,,,,
2021,02,24,06,47,00,171.3,,,,,,,,,,,,,,
2021,02,24,06,48,00,176.4,,,,,,,,,,,,,,
2021,02,24,06,49,00,166.3,,,,,,,,,,,,,,
2021,02,24,06,50,00,156.7,,,,,,,,,,,,,,
2021,02,24,06,51,00,182.8,,,,,,,,,,,,,,
2021,02,24,06,52,00,207.5,,,,,,,,,,,,,,
2021,02,24,06,53,00,184.8,,,,,,,,,,,,,,
2021,02,24,06,54,00,178.9,,,,,,,,,,,,,,
2021,02,24,06,55,00,202.5,,,,,,,,,,,,,,
2021,02,24,06,56,00,182.2,,,,,,,,,,,,,,
2021,02,24,06,57,00,200.7,,,,,,,,,,,,,,
2021,02,24,06,58,00,163.9,,,,,,,,,,,,,,
2021,02,24,06,59,00,168.3,,,,,,,,,,,,,,
2021,02,24,07,00,00,189.2,,,,,,,,,,,,,,
2021,02,24,07,01,00,247.0,,,,,,,,,,,,,,
2021,02,24,07,02,00,240.9,,,,,,,,,,,,,,
2021,02,24,07,03,00,201.3,,,,,,,,,,,,,,
2021,02,24,07,04,00,254.8,,,,,,,,,,,,,,
2021,02,24,07,05,00,339.1,,,,,,,,,,,,,,
2021,02,24,07,06,00,239.1,,,,,,,,,,,,,,
2021,02,24,07,07,00,207.6,,,,,,,,,,,,,,
2021,02,24,07,08,00,214.0,,,,,,,,,,,,,,
2021,02,24,07,09,00,217.2,,,,,,,,,,,,,,
2021,02,24,07,10,00,184.0,,,,,,,,,,,,,,
2021,02,24,07,11,00,153.6,,,,,,,,,,,,,,
2021,02,24,07,12,00,152.1,,,,,,,,,,,,,,
2021,02,24,07,13,00,175.2,,,,,,,,,,,,,,
2021,02,24,07,14,00,184.4,,,,,,,,,,,,,,
2021,02,24,07,15,00,184.8,,,,,,,,,,,,,,
2021,02,24,07,16,00,151.3,,,,,,,,,,,,,,
2021,02,24,07,17,00,157.4,,,,,,,,,,,,,,
2021,02,24,07,18,00,174.1,,,,,,,,,,,,,,
2021,02,24,07,19,00,197.1,,,,,,,,,,,,,,
2021,02,24,07,20,00,,,,,,,,,,,,,,,
2021,02,24,07,21,00,,,,,,,,,,,,,,,
2021,02,24,07,22,00,180.9,,,,,,,,,,,,,,
2021,02,24,07,23,00,187.0,,,,,,,,,,,,,,
2021,02,24,07,24,00,188.4,,,,,,,,,,,,,,
2021,02,24,07,25,00,189.0,,,,,,,,,,,,,,
2021,02,24,07,26,00,170.9,,,,,,,,,,,,,,
2021,02,24,07,27,00,153.5,,,,,,,,,,,,,,
2021,02,24,07,28,00,152.1,,,,,,,,,,,,,,
2021,02,24,07,29,00,153.3,,,,,,,,,,,,,,
2021,02,24,07,30,00,171.0,,,,,,,,,,,,,,
2021,02,24,07,31,00,165.3,,,,,,,,,,,,,,
2021,02,24,07,32,00,150.8,,,,,,,,,,,,,,
2021,02,24,07,33,00,153.9,,,,,,,,,,,,,,
2021,02,24,07,34,00,159.0,,,,,,,,,,,,,,
2021,02,24,07,35,00,185.5,,,,,,,,,,,,,,
2021,02,24,07,36,00,181.2,,,,,,,,,,,,,,
2021,02,24,07,37,00,185.7,,,,,,,,,,,,,,
2021,02,24,07,38,00,206.4,,,,,,,,,,,,,,
2021,02,24,07,39,00,233.3,,,,,,,,,,,,,,
2021,02,24,07,40,00,273.1,,,,,,,,,,,,,,
2021,02,24,07,41,00,251.4,,,,,,,,,,,,,,
2021,02,24,07,42,00,201.7,,,,,,,,,,,,,,
2021,02,24,07,43,00,204.3,,,,,,,,,,,,,,
2021,02,24,07,44,00,224.7,,,,,,,,,,,,,,
2021,02,24,07,45,00,217.0,,,,,,,,,,,,,,
2021,02,24,07,46,00,199.9,,,,,,,,,,,,,,
2021,02,24,07,47,00,211.0,,,,,,,,,,,,,,
2021,02,24,07,48,00,221.6,,,,,,,,,,,,,,
2021,02,24,07,49,00,281.5,,,,,,,,,,,,,,
2021,02,24,07,50,00,246.7,,,,,,,,,,,,,,
2021,02,24,07,51,00,200.7,,,,,,,,,,,,,,
2021,02,24,07,52,00,204.8,,,,,,,,,,,,,,
2021,02,24,07,53,00,230.0,,,,,,,,,,,,,,
2021,02,24,07,54,00,211.3,,,,,,,,,,,,,,
2021,02,24,07,55,00,199.6,,,,,,,,,,,,,,
2021,02,24,07,56,00,231.8,,,,,,,,,,,,,,
2021,02,24,07,57,00,212.5,,,,,,,,,,,,,,
2021,02,24,07,58,00,260.8,,,,,,,,,,,,,,
2021,02,24,07,59,00,202.4,,,,,,,,,,,,,,
2021,02,24,08,00,00,189.8,,,,,,,,,,,,,,
2021,02,24,08,01,00,184.4,,,,,,,,,,,,,,
2021,02,24,08,02,00,200.1,,,,,,,,,,,,,,
2021,02,24,08,03,00,211.9,,,,,,,,,,,,,,
2021,02,24,08,04,00,254.9,,,,,,,,,,,,,,
2021,02,24,08,05,00,,,,,,,,,,,,,,,
2021,02,24,08,06,00,,,,,,,,,,,,,,,
2021,02,24,08,07,00,246.6,,,,,,,,,,,,,,
2021,02,24,08,08,00,209.9,,,,,,,,,,,,,,
2021,02,24,08,09,00,210.4,,,,,,,,,,,,,,
2021,02,24,08,10,00,230.3,,,,,,,,,,,,,,
2021,02,24,08,11,00,208.8,,,,,,,,,,,,,,
2021,02,24,08,12,00,238.1,,,,,,,,,,,,,,
2021,02,24,08,13,00,247.1,,,,,,,,,,,,,,
2021,02,24,08,14,00,246.8,,,,,,,,,,,,,,
2021,02,24,08,15,00,217.9,,,,,,,,,,,,,,
2021,02,24,08,16,00,201.7,,,,,,,,,,,,,,
2021,02,24,08,17,00,260.0,,,,,,,,,,,,,,
2021,02,24,08,18,00,336.1,,,,,,,,,,,,,,
2021,02,24,08,19,00,254.8,,,,,,,,,,,,,,
2021,02,24,08,20,00,221.2,,,,,,,,,,,,,,
2021,02,24,08,21,00,234.8,,,,,,,,,,,,,,
2021,02,24,08,22,00,268.9,,,,,,,,,,,,,,
2021,02,24,08,23,00,265.2,,,,,,,,,,,,,,
2021,02,24,08,24,00,255.7,,,,,,,,,,,,,,
2021,02,24,08,25,00,242.6,,,,,,,,,,,,,,
2021,02,24,08,26,00,232.1,,,,,,,,,,,,,,
2021,02,24,08,27,00,207.7,,,,,,,,,,,,,,
2021,02,24,08,28,00,193.2,,,,,,,,,,,,,,
2021,02,24,08,29,00,205.8,,,,,,,,,,,,,,
2021,02,24,08,30,00,220.8,,,,,,,,,,,,,,
2021,02,24,08,31,00,279.7,,,,,,,,,,,,,,
2021,02,24,08,32,00,353.1,,,,,,,,,,,,,,
2021,02,24,08,33,00,332.4,,,,,,,,,,,,,,
2021,02,24,08,34,00,263.4,,,,,,,,,,,,,,
2021,02,24,08,35,00,214.3,,,,,,,,,,,,,,
2021,02,24,08,36,00,202.1,,,,,,,,,,,,,,
2021,02,24,08,37,00,203.7,,,,,,,,,,,,,,
2021,02,24,08,38,00,205.3,,,,,,,,,,,,,,
2021,02,24,08,39,00,178.7,,,,,,,,,,,,,,
2021,02,24,08,40,00,178.3,,,,,,,,,,,,,,
2021,02,24,08,41,00,164.6,,,,,,,,,,,,,,
2021,02,24,08,42,00,169.2,,,,,,,,,,,,,,
2021,02,24,08,43,00,184.6,,,,,,,,,,,,,,
2021,02,24,08,44,00,186.1,,,,,,,,,,,,,,
2021,02,24,08,45,00,190.8,,,,,,,,,,,,,,
2021,02,24,08,46,00,199.3,,,,,,,,,,,,,,
2021,02,24,08,47,00,207.7,,,,,,,,,,,,,,
2021,02,24,08,48,00,205.6,,,,,,,,,,,,,,
2021,02,24,08,49,00,208.6,,,,,,,,,,,,,,
2021,02,24,08,50,00,241.0,,,,,,,,,,,,,,
2021,02,24,08,51,00,226.5,,,,,,,,,,,,,,
2021,02,24,08,52,00,201.0,,,,,,,,,,,,,,
2021,02,24,08,53,00,239.1,,,,,,,,,,,,,,
2021,02,24,08,54,00,271.7,,,,,,,,,,,,,,
2021,02,24,08,55,00,263.6,,,,,,,,,,,,,,
2021,02,24,08,56,00,206.2,,,,,,,,,,,,,,
2021,02,24,08,57,00,204.6,,,,,,,,,,,,,,
2021,02,24,08,58,00,253.5,,,,,,,,,,,,,,
2021,02,24,08,59,00,209.8,,,,,,,,,,,,,,
2021,02,24,09,00,00,191.7,,,,,,,,,,,,,,
2021,02,24,09,01,00,186.2,,,,,,,,,,,,,,
2021,02,24,09,02,00,192.3,,,,,,,,,,,,,,
2021,02,24,09,03,00,203.1,,,,,,,,,,,,,,
2021,02,24,09,04,00,194.9,,,,,,,,,,,,,,
2021,02,24,09,05,00,218.5,,,,,,,,,,,,,,
2021,02,24,09,06,00,218.2,,,,,,,,,,,,,,
2021,02,24,09,07,00,195.6,,,,,,,,,,,,,,
2021,02,24,09,08,00,219.5,,,,,,,,,,,,,,
2021,02,24,09,09,00,213.5,,,,,,,,,,,,,,
2021,02,24,09,10,00,192.4,,,,,,,,,,,,,,
2021,02,24,09,11,00,215.4,,,,,,,,,,,,,,
2021,02,24,09,12,00,198.4,,,,,,,,,,,,,,
2021,02,24,09,13,00,205.6,,,,,,,,,,,,,,
2021,02,24,09,14,00,196.6,,,,,,,,,,,,,,
2021,02,24,09,15,00,182.3,,,,,,,,,,,,,,
2021,02,24,09,16,00,194.3,,,,,,,,,,,,,,
2021,02,24,09,17,00,214.9,,,,,,,,,,,,,,
2021,02,24,09,18,00,207.2,,,,,,,,,,,,,,
2021,02,24,09,19,00,219.0,,,,,,,,,,,,,,
2021,02,24,09,20,00,229.7,,,,,,,,,,,,,,
2021,02,24,09,21,00,265.9,,,,,,,,,,,,,,
2021,02,24,09,22,00,256.9,,,,,,,,,,,,,,
2021,02,24,09,23,00,226.7,,,,,,,,,,,,,,
2021,02,24,09,24,00,191.7,,,,,,,,,,,,,,
2021,02,24,09,25,00,202.0,,,,,,,,,,,,,,
2021,02,24,09,26,00,235.2,,,,,,,,,,,,,,
2021,02,24,09,27,00,288.1,,,,,,,,,,,,,,
2021,02,24,09,28,00,265.9,,,,,,,,,,,,,,
2021,02,24,09,29,00,256.1,,,,,,,,,,,,,,
2021,02,24,09,30,00,302.9,,,,,,,,,,,,,,
2021,02,24,09,31,00,287.1,,,,,,,,,,,,,,
2021,02,24,09,32,00,254.6,,,,,,,,,,,,,,
2021,02,24,09,33,00,240.9,,,,,,,,,,,,,,
2021,02,24,09,34,00,252.2,,,,,,,,,,,,,,
2021,02,24,09,35,00,290.5,,,,,,,,,,,,,,
2021,02,24,09,36,00,277.1,,,,,,,,,,,,,,
2021,02,24,09,37,00,274.0,,,,,,,,,,,,,,
2021,02,24,09,38,00,260.1,,,,,,,,,,,,,,
2021,02,24,09,39,00,255.7,,,,,,,,,,,,,,
2021,02,24,09,40,00,287.4,,,,,,,,,,,,,,
2021,02,24,09,41,00,209.1,,,,,,,,,,,,,,
2021,02,24,09,42,00,196.3,,,,,,,,,,,,,,
2021,02,24,09,43,00,188.0,,,,,,,,,,,,,,
2021,02,24,09,44,00,234.3,,,,,,,,,,,,,,
2021,02,24,09,45,00,273.8,,,,,,,,,,,,,,